EW7736 Weather Reports


Display with metric or nautical units.
time (UTC)temp
F
wind
direction
speed
MPH
gust
MPH
rain 1hr
in
rain 24hr
in
rain mn
in
humidity
%
barometer
mb
20260901002939 78 53 0.0 0.0 0.00 0.00 0.00 71 1017.8
20260901001941 78 49 0.0 0.0 0.00 0.00 0.00 70 1017.7
20260901000957 78 49 0.0 0.0 0.00 0.00 0.00 70 1017.7
20260831233901 79 49 0.0 0.0 0.00 0.00 0.00 72 1017.6
20260831231800 80 49 0.0 0.0 0.00 0.00 0.00 73 1017.7
20260831230735 80 49 0.0 0.0 0.00 0.00 0.00 74 1017.7
20260831225722 80 49 0.0 0.0 0.00 0.00 0.00 74 1017.8
20260831224703 81 49 0.0 0.0 0.00 0.00 0.00 75 1017.8
20260831223639 81 49 0.0 0.0 0.00 0.00 0.00 75 1017.8
20260831222611 81 49 0.0 1.0 0.00 0.00 0.00 75 1017.7
20260831221603 82 49 0.0 2.0 0.00 0.00 0.00 75 1017.7
20260831215440 82 51 0.0 3.0 0.00 0.00 0.00 74 1017.9
20260831213310 83 49 0.0 0.0 0.00 0.00 0.00 74 1018.2
20260831211056 83 49 0.0 2.0 0.00 0.00 0.00 74 1018.4
20260831204915 83 48 0.0 2.0 0.00 0.00 0.00 74 1018.3
20260831203842 82 59 0.0 0.0 0.00 0.00 0.00 74 1018.2
20260831202900 82 47 0.0 1.0 0.00 0.00 0.00 74 1018.3
20260831201831 81 47 0.0 0.0 0.00 0.00 0.00 74 1018.5
20260831200804 81 47 0.0 0.0 0.00 0.00 0.00 74 1018.6
20260831194647 80 47 0.0 0.0 0.00 0.00 0.00 74 1018.9
20260831193642 80 47 0.0 0.0 0.00 0.00 0.00 74 1019.0
20260831192706 80 47 0.0 0.0 0.00 0.00 0.00 74 1019.1
20260831191657 80 47 0.0 0.0 0.00 0.00 0.00 74 1019.1
20260831190658 80 47 0.0 0.0 0.00 0.00 0.00 75 1019.2
20260831185720 80 49 0.0 2.0 0.00 0.00 0.00 75 1019.1
20260831184718 80 53 0.0 2.0 0.00 0.00 0.00 75 1019.2
20260831183728 80 46 0.0 2.0 0.00 0.00 0.00 75 1019.4
20260831182656 80 46 0.0 3.0 0.00 0.00 0.00 75 1019.4
20260831181659 80 53 0.0 1.0 0.00 0.00 0.00 75 1019.4
20260831180715 80 96 0.0 3.0 0.00 0.00 0.00 75 1019.5
20260831175654 80 108 1.0 4.0 0.00 0.00 0.00 75 1019.5
20260831161620 77 49 0.0 0.0 0.00 0.00 0.00 71 1020.1
20260831155529 75 46 0.0 0.0 0.00 0.00 0.00 65 1020.1
20260831154536 75 50 0.0 0.0 0.00 0.00 0.00 63 1020.1
20260831153510 74 58 0.0 0.0 0.00 0.00 0.00 57 1020.0
20260831152508 74 50 0.0 0.0 0.00 0.00 0.00 58 1020.0
20260831151447 74 50 0.0 0.0 0.00 0.00 0.00 52 1019.9
20260831150449 73 11 0.0 0.0 0.00 0.00 0.00 48 1019.9
20260831145512 73 330 0.0 0.0 0.00 0.00 0.00 44 1020.0
20260831143337 72 51 0.0 0.0 0.00 0.00 0.00 35 1019.9
20260831142343 72 51 0.0 0.0 0.00 0.00 0.00 32 1019.9
20260831141330 72 63 0.0 0.0 0.00 0.00 0.00 29 1019.8
20260831140317 72 58 0.0 0.0 0.00 0.00 0.00 18 1019.8
20260831135258 71 53 0.0 0.0 0.00 0.00 0.00 9 1019.8
20260831134308 71 53 0.0 0.0 0.00 0.00 0.00 8 1019.8
20260831133251 70 53 0.0 0.0 0.00 0.00 0.00 11 1019.8
20260831132222 70 53 0.0 0.0 0.00 0.00 0.00 17 1019.9
20260831131155 70 53 0.0 0.0 0.00 0.00 0.00 23 1020.1
20260831130145 70 53 0.0 0.0 0.00 0.00 0.00 23 1019.9
20260831125206 70 53 0.0 0.0 0.00 0.00 0.00 25 1019.9
20260831123043 70 53 0.0 0.0 0.00 0.00 0.00 29 1019.7
20260831122027 69 53 0.0 0.0 0.00 0.00 0.00 37 1019.7
20260831121010 69 53 0.0 0.0 0.00 0.00 0.00 39 1019.7
20260831120014 69 53 0.0 0.0 0.00 0.00 0.00 37 1019.8
20260831115009 69 53 0.0 0.0 0.00 0.00 0.00 36 1019.6
20260831114033 69 53 0.0 0.0 0.00 0.00 0.00 37 1019.6
20260831113051 69 53 0.0 0.0 0.00 0.00 0.00 39 1019.5
20260831112046 69 53 0.0 0.0 0.00 0.00 0.00 41 1019.4
20260831111059 69 53 0.0 0.0 0.00 0.00 0.00 39 1019.4
20260831110112 69 53 0.0 0.0 0.00 0.00 0.00 35 1019.2
20260831105043 68 53 0.0 0.0 0.00 0.00 0.00 37 1019.2
20260831104040 68 53 0.0 0.0 0.00 0.00 0.00 33 1019.1
20260831103020 67 53 0.0 0.0 0.00 0.00 0.00 33 1019.0
20260831102033 67 53 0.0 0.0 0.00 0.00 0.00 38 1018.9
20260831101013 67 53 0.0 0.0 0.00 0.00 0.00 43 1018.8
20260831094820 67 16 0.0 0.0 0.00 0.00 0.00 50 1018.9
20260831093823 67 16 0.0 0.0 0.00 0.00 0.00 52 1018.9
20260831092813 67 16 0.0 0.0 0.00 0.00 0.00 55 1018.9
20260831091819 68 16 0.0 0.0 0.00 0.00 0.00 56 1018.9
20260831090758 68 16 0.0 0.0 0.00 0.00 0.00 58 1018.8
20260831085733 68 15 0.0 0.0 0.00 0.00 0.00 60 1018.9
20260831083629 68 16 0.0 0.0 0.00 0.00 0.00 62 1018.8
20260831082600 68 16 0.0 0.0 0.00 0.00 0.00 62 1018.9
20260831081615 68 16 0.0 0.0 0.00 0.00 0.00 66 1018.9
20260831080557 68 16 0.0 0.0 0.00 0.00 0.00 66 1018.9
20260831074520 69 16 0.0 0.0 0.00 0.00 0.00 69 1018.9
20260831073534 69 16 0.0 0.0 0.00 0.00 0.00 69 1018.8
20260831072549 70 16 0.0 0.0 0.00 0.00 0.00 71 1018.9
20260831071608 70 16 0.0 0.0 0.00 0.00 0.00 73 1019.0
20260831070559 70 16 0.0 0.0 0.00 0.00 0.00 74 1019.0
20260831065528 70 16 0.0 0.0 0.00 0.00 0.00 74 1019.0
20260831064500 70 16 0.0 0.0 0.00 0.00 0.00 75 1019.2
20260831063518 70 16 0.0 0.0 0.00 0.00 0.00 75 1019.3
20260831061442 71 16 0.0 0.0 0.00 0.00 0.00 75 1019.3
20260831060457 71 164 0.0 0.0 0.00 0.00 0.00 75 1019.4
20260831054422 71 165 0.0 0.0 0.00 0.00 0.00 75 1019.6
20260831052230 71 164 0.0 0.0 0.00 0.00 0.00 75 1019.8
20260831051226 71 160 0.0 0.0 0.00 0.00 0.00 75 1019.9
20260831050157 71 158 0.0 0.0 0.00 0.00 0.00 75 1019.9
20260831044013 71 158 0.0 0.0 0.00 0.00 0.00 75 1020.1
20260831043029 71 196 0.0 0.0 0.00 0.00 0.00 74 1020.1
20260831041956 71 195 0.0 0.0 0.00 0.00 0.00 74 1020.1
20260831035950 71 123 0.0 0.0 0.00 0.00 0.00 70 1020.2
20260831034916 71 123 0.0 0.0 0.00 0.00 0.00 68 1020.3
20260831033909 72 123 0.0 0.0 0.00 0.00 0.00 66 1020.4
20260831032913 72 123 0.0 0.0 0.00 0.00 0.00 65 1020.4
20260831031904 72 123 0.0 0.0 0.00 0.00 0.00 64 1020.4
20260831030844 72 124 0.0 0.0 0.00 0.00 0.00 64 1020.5
20260831025857 73 124 0.0 0.0 0.00 0.00 0.00 65 1020.5
20260831024834 73 169 0.0 0.0 0.00 0.00 0.00 68 1020.3
20260831023818 73 169 0.0 0.0 0.00 0.00 0.00 66 1020.3
20260831021648 73 169 0.0 0.0 0.00 0.00 0.00 69 1020.2
20260831020623 73 169 0.0 0.0 0.00 0.00 0.00 71 1020.2
20260831015605 74 169 0.0 0.0 0.00 0.00 0.00 72 1020.2
20260831014627 74 169 0.0 0.0 0.00 0.00 0.00 73 1019.9
20260831012533 74 169 0.0 0.0 0.00 0.00 0.00 75 1019.9
20260831011536 75 169 0.0 0.0 0.00 0.00 0.00 75 1019.8
20260831010509 75 169 0.0 0.0 0.00 0.00 0.00 75 1019.6